Change the Weather History Date:

Friday, October 10, 2014

  Actual Average Record
Temperature  
Mean Temperature 66 °F -  
Max Temperature 78 °F 80 °F 96 °F (1983)
Min Temperature 53 °F 57 °F 41 °F (1982)
Growing Degree Days 16 (Base 50)    
Moisture  
Dew Point 50 °F    
Average Humidity 64    
Maximum Humidity 100    
Minimum Humidity 26    
Precipitation  
Precipitation 0.00 in - - ()
Sea Level Pressure  
Sea Level Pressure 30.00 in    
Wind  
Wind Speed 6 mph (West)    
Max Wind Speed 13 mph    
Max Gust Speed 20 mph    
Visibility 10 miles    
Events      
Averages and records for this station are not official NWS values.
T = Trace of Precipitation, MM = Missing Value Source: NWS Daily Summary

Daily Weather History Graph

Daily Weather History Graph

Search for Another Location

Airport or City:

Trip Planner

Search our weather history database for the weather conditions in past years. The results will help you decide how hot, cold, wet, or windy it might be!

Date:

Astronomy

Oct. 10, 2014 Rise Set
Actual Time 6:21 AM MST 5:55 PM MST
Civil Twilight 5:56 AM MST 6:19 PM MST
Nautical Twilight 5:28 AM MST 6:47 PM MST
Astronomical Twilight 5:00 AM MST 7:15 PM MST
Moon 7:47 PM MST (10/10) 8:37 AM MST (10/10)
Length of Visible Light 12h 22m
Length of Day
11h 33m
Waning Gibbous, 93% of the Moon is Illuminated
Oct 10
Waning Gibbous
Oct 15
Last Quarter
Oct 23
New
Oct 30
First Quarter
Nov 6
Full

Hourly Weather History & Observations

Time (MST) Temp. Dew Point Humidity Pressure Visibility Wind Dir Wind Speed Gust Speed Precip Events Conditions
12:53 AM 57.2 °F 55.4 °F 94% 29.96 in 10.0 mi West 8.1 mph - N/A   Clear
1:55 AM 57.2 °F 53.6 °F 88% 30.09 in 10.0 mi West 8.1 mph - N/A   Clear
2:55 AM 53.6 °F 53.6 °F 100% 29.98 in 10.0 mi NW 5.8 mph - N/A   Clear
3:55 AM 55.4 °F 53.6 °F 94% 29.98 in 10.0 mi Calm Calm - N/A   Clear
4:55 AM 55.4 °F 53.6 °F 94% 29.99 in 10.0 mi Calm Calm - N/A   Clear
5:55 AM 53.6 °F 51.8 °F 94% 30.02 in 10.0 mi SW 4.6 mph - N/A   Clear
6:55 AM 55.4 °F 51.8 °F 88% 30.02 in 10.0 mi WSW 4.6 mph - N/A   Clear
7:55 AM 60.8 °F 53.6 °F 77% 30.04 in 10.0 mi SSE 3.5 mph - N/A   Clear
8:55 AM 66.2 °F 51.8 °F 60% 30.03 in 10.0 mi Calm Calm - N/A   Clear
9:55 AM 69.8 °F 51.8 °F 53% 30.04 in 10.0 mi East 4.6 mph - N/A   Partly Cloudy
10:55 AM 71.6 °F 51.8 °F 50% 30.02 in 10.0 mi Variable 5.8 mph - N/A   Partly Cloudy
11:55 AM 73.4 °F 48.2 °F 41% 30.00 in 10.0 mi Calm Calm - N/A   Partly Cloudy
12:55 PM 75.2 °F 48.2 °F 38% 29.98 in 10.0 mi Variable 4.6 mph - N/A   Partly Cloudy
1:55 PM 78.8 °F 48.2 °F 34% 29.96 in 10.0 mi NNW 5.8 mph 19.6 mph N/A   Partly Cloudy
2:55 PM 78.8 °F 44.6 °F 30% 29.96 in 10.0 mi NW 9.2 mph - N/A   Partly Cloudy
3:55 PM 77.0 °F 39.2 °F 26% 29.95 in 10.0 mi WNW 12.7 mph - N/A   Partly Cloudy
4:55 PM 75.2 °F 44.6 °F 34% 29.96 in 10.0 mi NW 9.2 mph - N/A   Partly Cloudy
5:55 PM 68.0 °F 50.0 °F 52% 29.99 in 10.0 mi WNW 9.2 mph - N/A   Clear
6:55 PM 66.2 °F 50.0 °F 56% 30.00 in 10.0 mi West 9.2 mph - N/A   Clear
7:55 PM 64.4 °F 51.8 °F 64% 30.01 in 10.0 mi WSW 9.2 mph - N/A   Clear
8:55 PM 62.6 °F 53.6 °F 72% 30.01 in 10.0 mi WSW 9.2 mph - N/A   Clear
9:55 PM 62.6 °F 51.8 °F 68% 30.01 in 10.0 mi Variable 3.5 mph - N/A   Clear
10:56 PM 61.0 °F 48.0 °F 62% 30.01 in 10.0 mi SW 9.2 mph - N/A   Clear
11:56 PM 60.1 °F 48.0 °F 64% 30.00 in 10.0 mi SW 6.9 mph - N/A   Clear